Temperature
7 6 6 6 7 7 7 7 7 8 9 9 9 9 9 10 11 11 12 13 14 14 15 15 15 15 16 15 15 15 15 15 15 15 15 15 15 15 15 15 15 15 15 14
6 6 7 7 7 8 8 7 7 8 9 9 8 8 9 9 10 11 12 13 14 14 15 15 15 15 15 15 15 15 15 15 15 15 15 15 15 15 15 15 15 14 14 14
6 7 7 8 7 7 7 7 7 8 8 8 8 8 9 9 10 11 12 13 14 14 15 15 15 15 15 15 16 16 15 15 15 15 15 15 15 15 15 15 15 14 14 14
6 7 7 7 7 8 7 8 8 8 8 7 8 8 8 8 9 9 11 12 13 14 14 15 15 15 15 15 16 16 15 15 15 15 15 15 15 15 15 15 15 15 14 14
6 7 7 7 7 8 7 8 8 8 7 7 7 7 8 8 9 10 10 12 13 14 14 14 15 15 15 15 15 15 15 15 15 15 15 15 15 14 15 14 14 14 14 14
6 7 7 7 8 8 7 7 7 6 7 7 7 7 8 7 9 9 10 11 12 13 14 14 14 15 15 15 15 15 15 15 15 15 15 15 15 14 14 14 14 14 14 14
6 7 7 8 8 8 7 6 6 6 6 6 7 7 7 8 8 9 9 10 12 13 13 13 14 14 15 15 15 15 15 15 15 15 14 14 14 14 14 14 14 14 14 14
6 6 7 7 7 7 7 7 6 6 6 6 6 7 7 8 8 9 9 10 11 12 12 13 13 14 14 14 14 15 15 14 14 14 14 14 14 14 14 14 14 13 13 13
5 6 7 7 7 7 7 6 6 5 5 6 6 6 7 8 8 8 9 9 10 11 11 12 13 13 13 13 14 14 14 14 14 14 14 14 13 13 13 13 13 13 13 12
6 6 6 7 7 7 7 6 5 5 6 6 6 6 6 8 8 7 7 8 9 10 11 12 12 13 13 13 13 13 13 13 13 13 13 13 13 13 13 13 12 12 12 12
6 5 5 6 6 6 6 6 5 4 5 5 6 7 7 7 7 6 6 8 9 9 10 11 11 12 12 12 12 12 12 12 12 12 12 12 12 12 12 12 12 11 11 11
5 4 4 5 6 6 6 6 5 5 5 4 5 6 8 6 6 6 7 8 8 9 9 10 10 11 11 11 12 12 12 12 12 12 12 12 11 11 11 11 11 11 10 10
5 4 4 5 5 5 5 5 5 5 4 4 5 6 7 6 6 7 7 7 8 8 9 9 9 10 10 10 11 11 11 11 11 11 11 11 11 10 10 10 10 10 10 10
5 4 4 5 5 5 5 5 5 4 4 4 4 5 6 6 6 6 7 7 7 8 8 8 8 9 9 9 10 10 10 10 10 10 10 10 10 10 10 9 9 9 9 9
5 4 4 4 5 5 5 5 4 4 4 4 5 5 6 5 5 6 6 6 7 7 7 7 7 8 8 9 9 9 9 9 9 9 9 9 9 9 9 8 8 8 8 8
4 4 4 4 4 4 4 4 4 4 4 4 5 5 5 5 5 6 6 6 6 6 6 6 7 7 7 8 8 8 8 9 9 9 9 8 8 8 8 8 8 8 8 7
3 4 4 3 3 4 4 4 4 4 4 4 4 5 4 4 5 5 5 5 5 5 6 6 6 6 6 7 7 7 7 8 8 8 8 8 7 7 7 7 7 7 7 7
3 3 3 3 3 3 5 5 4 4 4 4 4 4 4 4 5 5 5 5 5 5 5 5 5 5 6 6 6 6 7 7 7 7 7 7 7 7 7 7 7 6 6 6
2 3 2 2 2 3 4 4 4 4 4 4 3 3 4 4 4 5 5 4 4 4 4 4 5 5 5 5 6 6 6 6 7 7 7 7 6 6 6 6 6 6 6 5
2 2 2 2 3 3 5 5 4 4 4 4 3 3 3 3 2 3 4 4 4 4 4 4 4 4 5 5 5 5 6 6 6 6 6 6 6 6 6 6 5 5 5 5
2 2 2 2 2 3 3 4 4 4 4 4 3 3 3 2 2 3 3 3 3 3 3 4 4 4 4 4 4 5 5 5 5 5 5 5 5 5 5 5 5 5 4 4
2 1 1 2 2 3 3 3 3 3 4 3 3 3 2 2 2 2 2 2 3 3 3 3 3 4 4 4 4 4 4 4 4 5 5 4 5 4 4 4 4 4 4 4
1 2 1 2 3 3 4 4 4 4 3 3 3 3 2 2 2 2 2 2 2 2 2 3 3 3 3 3 3 3 4 4 4 4 4 4 4 4 4 4 4 3 3 3
0 1 1 1 1 2 3 4 3 3 3 3 3 2 2 2 2 1 1 1 2 2 2 2 2 3 3 3 3 3 3 3 3 3 3 3 3 3 3 3 3 3 3 3
1 -0 0 1 1 2 3 3 3 3 3 2 2 2 2 1 1 1 1 1 1 1 2 2 2 2 2 2 2 2 3 3 3 3 3 3 3 2 2 2 3 3 2 2
-1 -0 0 1 2 1 3 4 3 3 2 2 2 1 1 1 1 1 1 1 1 1 1 1 2 2 2 2 2 2 2 2 2 2 2 2 2 2 2 2 2 2 1 1
Wind_Speed
3 4 2 2 3 4 4 3 1 1 1 1 1 5 8 6 4 6 6 4 5 6 6 3 4 5 5 6 8 10 11 10 9 6 6 6 7 6 5 6 9 11 11 12
4 2 2 1 2 4 4 4 1 1 0 1 1 5 7 6 6 7 7 7 6 7 6 4 3 4 5 6 8 8 10 11 11 9 7 5 5 4 5 4 5 9 10 10
3 1 1 3 3 4 2 3 2 2 1 2 2 5 6 5 5 7 7 6 6 7 7 6 4 5 5 7 8 8 9 10 11 11 6 4 4 3 4 4 5 6 8 9
2 2 2 4 2 3 1 2 2 3 3 1 1 3 6 4 5 7 7 7 7 6 6 5 5 5 6 7 6 7 8 9 9 9 9 10 9 8 8 6 6 5 7 8
2 2 3 2 0 2 2 1 2 2 2 1 1 1 6 3 4 7 7 7 7 6 5 6 6 6 6 5 4 5 7 8 8 9 10 11 9 7 5 5 6 6 5 5
1 1 1 0 1 2 3 4 5 4 3 1 2 2 5 3 5 5 6 6 6 6 5 5 5 4 4 3 3 3 5 6 6 8 9 10 10 8 7 7 7 6 4 4
4 3 3 1 3 4 4 5 3 4 3 3 2 2 6 6 5 5 7 7 7 5 4 4 4 4 4 3 3 3 4 5 5 6 7 8 8 9 10 8 8 7 5 4
2 2 3 2 2 2 2 4 4 3 2 4 3 4 7 6 5 4 4 4 5 5 4 5 4 4 4 4 3 2 4 4 4 5 6 6 6 6 6 6 6 7 6 5
4 1 3 1 1 4 3 2 4 4 1 2 4 6 8 4 5 7 7 7 6 6 6 6 5 4 3 3 3 3 3 4 4 4 5 5 6 6 6 5 5 5 5 5
5 2 3 2 3 4 3 4 4 3 2 2 5 4 4 6 7 8 9 8 8 8 7 6 5 5 4 3 3 2 2 3 3 3 4 3 4 4 5 5 5 5 5 6
3 3 2 3 1 2 2 2 3 2 2 3 2 5 4 3 4 6 7 7 8 8 8 7 6 5 4 3 2 2 1 1 2 2 2 3 3 4 5 5 6 6 6 7
3 4 0 3 2 1 3 3 4 3 2 2 2 6 4 2 3 4 6 8 8 8 7 7 6 6 5 5 4 3 2 1 2 2 3 3 3 4 5 5 6 7 7 6
5 5 2 4 3 2 0 2 3 3 2 3 3 6 3 5 7 7 7 8 9 8 8 7 7 6 6 5 5 4 3 2 1 2 3 3 4 4 5 5 6 6 7 7
5 4 5 6 4 3 3 3 4 4 3 4 7 9 9 9 9 9 8 8 8 8 7 7 7 7 7 6 5 4 4 2 2 3 4 5 5 5 5 6 6 6 7 7
4 3 3 4 3 3 5 6 6 7 7 7 7 8 9 8 6 6 6 7 7 8 8 8 8 7 7 7 7 6 4 3 2 3 5 5 5 5 5 6 6 6 6 7
3 3 1 2 2 2 5 7 7 8 7 8 8 10 5 5 4 5 6 7 7 7 7 8 8 8 8 8 7 7 6 4 2 3 4 4 6 6 6 6 6 6 6 6
3 4 2 2 4 4 6 6 7 4 4 5 7 6 4 5 6 5 5 7 7 8 8 8 8 8 8 8 7 7 6 4 2 3 4 5 6 6 6 7 7 7 6 6
6 5 3 0 2 4 6 1 4 4 4 4 4 4 4 6 6 5 3 5 7 8 9 9 9 9 8 8 7 7 5 4 3 4 4 5 6 6 6 7 7 6 5 6
4 6 3 2 2 7 6 2 3 4 4 3 4 4 5 5 5 4 3 5 6 7 9 9 8 8 8 8 7 6 5 3 3 4 5 6 7 7 7 7 7 5 5 5
4 4 4 3 2 6 5 2 2 3 4 2 2 3 3 4 4 6 6 8 9 8 8 8 8 7 7 7 6 5 5 4 4 4 5 5 6 8 8 8 6 4 5 5
4 3 4 4 5 8 5 2 3 3 5 1 1 2 2 3 5 7 9 9 8 8 9 8 7 7 7 6 5 5 5 5 5 3 3 4 6 6 7 6 5 6 6 6
8 7 6 6 6 9 3 5 5 5 1 1 1 2 4 6 7 7 8 9 9 9 9 8 7 7 7 5 5 5 6 5 3 2 3 4 5 5 5 7 6 6 7 7
8 8 7 9 8 3 4 5 3 3 2 2 2 4 4 6 7 8 8 8 8 8 8 7 6 7 7 5 4 5 5 4 3 1 2 3 4 4 5 7 7 6 6 6
4 4 4 5 6 4 4 3 2 3 3 3 3 4 4 6 7 8 8 8 8 8 7 7 6 6 7 6 5 4 4 3 2 1 1 2 3 4 4 5 6 6 7 6
7 7 5 5 5 2 4 6 4 3 2 2 3 3 5 6 7 7 7 8 8 7 7 6 6 6 7 6 6 5 4 3 2 0 1 2 2 3 3 4 5 6 6 7
6 8 9 8 7 6 5 5 4 3 3 3 3 4 5 5 6 7 7 6 7 7 6 6 6 6 6 5 5 5 4 3 1 0 0 1 2 2 3 3 2 4 6 8
Wind_Direction
15 67 96 188 177 164 148 138 171 267 289 80 235 267 276 286 282 278 280 276 275 270 270 271 241 217 201 197 201 203 195 194 186 186 191 193 205 204 203 206 205 200 198 194
49 34 279 174 139 117 125 123 141 19 348 101 301 288 274 265 252 249 252 256 258 266 278 271 257 228 210 207 210 209 203 196 193 195 194 191 185 196 203 198 197 195 191 191
104 279 295 111 103 102 90 151 166 148 10 22 6 317 287 275 261 265 259 247 249 247 255 263 257 238 224 220 216 215 214 208 201 195 183 170 161 160 178 194 201 198 189 190
57 335 87 92 74 116 145 223 155 123 99 346 59 301 289 274 282 269 270 266 255 255 255 256 257 252 241 238 229 217 214 214 207 195 191 193 200 206 204 196 194 187 184 182
35 23 67 77 342 129 162 121 108 107 104 26 26 202 288 310 276 270 270 269 270 266 258 257 251 249 253 250 237 225 217 215 208 200 198 201 210 214 201 181 178 181 180 174
39 353 66 136 17 90 116 69 55 45 63 340 258 187 284 260 246 277 283 284 283 279 271 269 271 268 269 266 243 229 217 220 210 204 202 202 204 201 190 189 188 186 177 175
19 10 358 33 63 43 73 81 44 18 13 269 292 211 255 264 266 266 282 291 295 296 286 282 279 277 279 275 252 227 213 223 212 200 200 203 204 199 198 195 191 184 181 182
96 327 326 359 129 132 91 115 143 179 228 295 309 248 261 278 295 303 299 300 321 323 309 294 285 274 273 272 265 238 222 226 213 203 200 195 194 197 196 191 185 185 187 180
148 256 336 352 36 118 106 111 146 126 133 295 288 295 307 320 358 2 5 6 352 334 323 311 308 300 283 276 265 237 223 227 215 203 195 194 193 192 186 179 174 168 160 153
139 125 341 337 62 35 116 136 99 112 144 278 300 292 277 319 341 350 354 353 341 336 334 331 325 317 304 286 281 273 227 225 221 202 195 191 189 180 165 155 160 155 146 141
114 121 351 26 119 172 89 98 105 113 148 174 274 279 249 265 314 334 333 336 339 336 333 331 331 327 321 324 323 311 288 246 226 205 180 160 159 151 148 147 148 146 143 144
130 117 158 273 287 221 166 164 145 151 232 186 212 270 288 303 335 348 341 343 343 340 337 336 339 340 339 334 330 313 294 261 232 191 160 151 140 135 137 143 143 141 140 138
136 115 70 359 353 13 146 180 164 138 141 184 208 264 308 351 353 355 351 346 345 345 348 351 349 345 339 333 326 315 304 270 233 170 160 154 153 151 150 147 140 137 134 131
121 123 165 192 222 193 218 217 181 157 191 227 230 262 300 323 331 335 339 337 337 339 343 348 347 343 336 329 321 312 308 278 220 178 172 178 177 166 155 147 141 139 138 136
111 153 198 235 249 211 228 232 211 207 209 222 247 258 279 299 302 308 319 329 336 338 341 343 339 335 333 330 325 317 307 287 228 194 189 190 169 152 145 141 139 137 137 139
97 129 127 307 308 262 260 249 229 227 226 236 262 274 274 293 307 317 325 330 329 328 331 333 333 331 329 325 320 317 309 296 234 208 204 178 159 154 152 147 142 138 135 134
124 128 128 281 323 346 277 241 211 212 214 207 237 260 319 319 317 310 318 326 323 323 326 326 325 322 319 317 313 305 298 295 245 220 201 178 168 164 160 153 148 150 149 144
135 128 133 162 21 255 248 244 191 208 230 216 246 290 306 293 293 286 299 320 322 326 324 321 318 315 314 311 312 305 300 282 242 219 201 183 173 170 161 156 159 157 151 153
140 138 133 141 252 280 287 248 175 193 258 219 237 283 313 326 322 309 330 344 323 312 310 306 303 302 304 307 311 312 308 289 252 227 208 193 180 173 168 170 170 162 156 158
78 106 128 150 213 251 251 225 187 138 269 227 217 271 323 358 323 298 327 328 319 315 310 307 307 308 308 310 315 314 308 294 266 245 221 198 185 180 178 176 169 160 159 163
132 142 169 183 230 264 247 235 127 172 254 260 221 254 287 260 261 287 308 311 311 312 312 311 312 311 306 308 315 314 309 292 279 255 212 196 187 182 175 166 161 156 155 155
173 172 184 174 209 250 201 144 179 218 250 209 248 259 269 279 290 298 304 308 315 317 318 317 315 314 311 312 313 310 303 300 293 249 207 193 181 174 166 159 160 158 157 162
195 189 185 194 211 229 179 195 207 170 199 230 248 276 279 287 292 299 304 309 313 313 314 313 310 313 316 316 309 302 304 311 305 258 202 183 168 165 166 165 164 164 167 174
233 172 174 235 252 230 223 219 207 199 215 246 264 280 284 286 293 300 304 308 311 313 312 314 317 319 319 323 323 310 309 319 319 262 198 173 166 166 169 172 172 176 181 184
201 170 187 239 256 253 235 215 209 214 241 275 296 292 288 288 293 298 302 306 310 311 313 318 320 317 317 323 329 331 331 338 345 337 186 174 178 175 179 187 194 192 198 194
190 178 180 215 208 191 224 215 198 210 245 264 288 297 295 287 290 299 301 305 308 311 315 320 321 321 321 325 330 337 339 340 346 342 222 189 181 179 181 184 199 211 210 214
Height
1476 1480 1482 1481 1480 1481 1483 1486 1487 1485 1483 1484 1484 1484 1481 1478 1479 1479 1479 1481 1482 1484 1485 1487 1489 1492 1494 1496 1499 1502 1504 1506 1510 1513 1515 1518 1520 1523 1525 1528 1530 1532 1534 1535
1481 1482 1481 1479 1480 1480 1482 1485 1486 1485 1483 1484 1484 1483 1479 1477 1477 1477 1477 1478 1479 1481 1482 1484 1486 1489 1490 1492 1495 1498 1500 1503 1506 1508 1511 1514 1516 1519 1522 1524 1525 1527 1529 1531
1482 1483 1480 1480 1481 1482 1484 1486 1486 1486 1485 1484 1486 1485 1480 1475 1474 1474 1474 1474 1476 1478 1479 1481 1483 1486 1487 1490 1491 1493 1496 1499 1502 1504 1507 1510 1512 1514 1516 1519 1520 1523 1525 1527
1483 1482 1481 1482 1483 1483 1486 1484 1484 1485 1489 1492 1490 1493 1482 1477 1474 1472 1471 1472 1473 1475 1477 1478 1480 1482 1484 1486 1488 1490 1492 1495 1497 1500 1502 1504 1506 1508 1510 1513 1515 1518 1520 1522
1485 1483 1483 1483 1484 1483 1485 1484 1485 1487 1490 1493 1493 1494 1486 1479 1476 1472 1470 1470 1470 1472 1474 1475 1477 1479 1481 1483 1484 1486 1488 1490 1492 1494 1497 1499 1501 1503 1506 1509 1511 1513 1515 1517
1485 1484 1484 1484 1483 1483 1485 1487 1489 1491 1493 1497 1494 1495 1489 1482 1475 1472 1469 1468 1469 1470 1471 1473 1474 1476 1478 1479 1481 1482 1484 1485 1488 1490 1492 1494 1496 1499 1501 1503 1505 1508 1510 1512
1487 1486 1485 1484 1485 1486 1487 1494 1501 1501 1504 1501 1495 1494 1487 1476 1473 1472 1470 1468 1467 1468 1469 1470 1471 1473 1474 1475 1477 1478 1479 1481 1483 1485 1487 1489 1491 1494 1496 1499 1501 1503 1505 1507
1492 1493 1487 1485 1486 1488 1490 1493 1502 1505 1506 1504 1496 1494 1483 1473 1471 1470 1469 1468 1467 1466 1467 1467 1468 1469 1470 1472 1473 1474 1475 1476 1478 1479 1482 1484 1487 1489 1491 1494 1496 1498 1500 1502
1493 1493 1488 1486 1486 1487 1491 1495 1497 1505 1508 1506 1498 1492 1481 1471 1470 1469 1468 1467 1466 1466 1465 1465 1466 1466 1467 1469 1470 1471 1471 1472 1474 1475 1477 1479 1481 1483 1486 1489 1491 1493 1496 1498
1488 1492 1490 1488 1487 1489 1491 1494 1500 1503 1506 1505 1499 1495 1488 1476 1474 1472 1470 1468 1467 1465 1464 1464 1464 1464 1465 1466 1466 1467 1468 1469 1470 1472 1473 1475 1477 1479 1481 1484 1486 1488 1490 1492
1486 1493 1494 1491 1492 1493 1494 1495 1498 1504 1505 1507 1503 1494 1480 1478 1476 1475 1472 1469 1468 1466 1464 1463 1463 1463 1463 1463 1464 1464 1465 1466 1467 1468 1470 1471 1473 1474 1476 1478 1481 1483 1485 1487
1487 1494 1498 1495 1493 1492 1492 1494 1498 1504 1506 1508 1506 1495 1476 1477 1475 1474 1472 1469 1468 1466 1464 1463 1462 1462 1461 1461 1462 1462 1463 1463 1464 1465 1466 1468 1469 1471 1472 1474 1476 1479 1481 1483
1486 1494 1502 1499 1499 1496 1494 1494 1496 1499 1504 1507 1504 1492 1476 1475 1473 1473 1472 1470 1468 1466 1464 1462 1461 1460 1460 1459 1459 1459 1460 1460 1461 1461 1462 1464 1466 1467 1468 1470 1472 1474 1476 1478
1484 1492 1498 1498 1494 1494 1494 1494 1495 1499 1503 1502 1497 1488 1479 1477 1475 1473 1472 1470 1468 1466 1464 1462 1460 1459 1459 1458 1457 1457 1457 1457 1457 1458 1459 1460 1462 1463 1465 1466 1468 1470 1472 1474
1484 1491 1492 1493 1492 1492 1492 1491 1493 1495 1495 1496 1489 1486 1480 1478 1477 1474 1472 1470 1468 1466 1464 1462 1460 1459 1458 1456 1455 1454 1454 1454 1453 1454 1455 1456 1458 1459 1461 1462 1464 1466 1468 1470
1485 1490 1491 1492 1491 1491 1491 1488 1489 1489 1488 1488 1486 1483 1478 1477 1475 1473 1472 1470 1467 1465 1464 1462 1460 1458 1456 1454 1453 1451 1450 1450 1450 1450 1451 1452 1453 1455 1457 1459 1460 1462 1464 1466
1487 1490 1494 1496 1494 1490 1490 1483 1483 1484 1483 1483 1483 1480 1477 1476 1474 1473 1471 1469 1467 1464 1462 1460 1458 1456 1454 1452 1450 1449 1447 1446 1446 1446 1447 1448 1450 1451 1453 1455 1457 1459 1461 1463
1487 1491 1496 1498 1496 1498 1483 1478 1478 1480 1479 1479 1478 1477 1476 1475 1472 1471 1470 1468 1466 1464 1461 1458 1456 1454 1452 1450 1448 1446 1444 1443 1442 1443 1443 1444 1446 1447 1449 1451 1453 1455 1457 1459
1483 1489 1496 1500 1500 1492 1481 1477 1477 1479 1477 1475 1476 1475 1474 1472 1470 1468 1468 1466 1465 1462 1460 1457 1454 1452 1449 1447 1445 1443 1441 1440 1439 1439 1439 1440 1442 1444 1445 1447 1449 1451 1453 1455
1486 1488 1495 1498 1496 1490 1477 1474 1474 1477 1476 1473 1472 1472 1472 1471 1472 1468 1466 1464 1461 1459 1457 1454 1451 1449 1446 1444 1442 1439 1437 1436 1435 1435 1436 1437 1438 1440 1441 1443 1445 1447 1449 1451
1487 1490 1493 1495 1495 1484 1475 1472 1474 1480 1475 1471 1470 1470 1470 1470 1470 1467 1463 1461 1459 1456 1453 1450 1448 1445 1443 1440 1438 1436 1434 1433 1432 1432 1432 1433 1434 1436 1438 1439 1441 1443 1445 1447
1481 1487 1489 1491 1492 1483 1470 1471 1473 1472 1469 1468 1468 1468 1468 1467 1465 1463 1461 1458 1455 1452 1449 1447 1445 1442 1439 1437 1435 1433 1431 1430 1429 1428 1428 1429 1430 1432 1433 1435 1437 1439 1441 1443
1475 1474 1476 1476 1473 1467 1466 1466 1467 1467 1467 1467 1466 1466 1465 1464 1462 1460 1457 1455 1452 1450 1447 1444 1442 1439 1436 1434 1432 1430 1428 1427 1426 1425 1425 1425 1426 1428 1429 1431 1433 1435 1436 1438
1469 1468 1471 1471 1465 1464 1464 1464 1465 1465 1465 1464 1464 1463 1462 1460 1458 1456 1454 1452 1449 1447 1444 1441 1439 1436 1433 1431 1429 1427 1425 1424 1423 1422 1422 1422 1423 1424 1426 1427 1429 1431 1432 1434
1461 1465 1466 1466 1462 1461 1460 1461 1461 1462 1462 1461 1461 1460 1459 1457 1455 1453 1451 1449 1446 1444 1441 1439 1436 1433 1431 1429 1427 1425 1423 1422 1421 1420 1420 1420 1421 1422 1423 1424 1426 1427 1429 1430
1455 1457 1460 1458 1454 1456 1455 1456 1458 1458 1458 1458 1457 1456 1455 1454 1452 1450 1448 1446 1443 1441 1438 1436 1433 1430 1428 1426 1424 1423 1421 1420 1419 1418 1418 1418 1418 1419 1420 1421 1422 1423 1425 1426